Time,TemperatureF,DewpointF,PressureIn,WindDirection,WindDirectionDegrees,WindSpeedMPH,WindSpeedGustMPH,Humidity,HourlyPrecipIn,Conditions,Clouds,dailyrainin,SoftwareType,DateUTC
2013-06-22 00:01:00,74.0,62.3,30.00,NW,308,0.0,0.0,67,0.00,,,0.00,Wunderground v.1.15,2013-06-22 04:01:00,
2013-06-22 00:10:00,73.9,62.2,30.00,NW,308,0.0,0.0,67,0.00,,,0.00,Wunderground v.1.15,2013-06-22 04:10:00,
2013-06-22 00:16:00,73.8,62.2,29.99,NW,308,0.0,3.0,67,0.00,,,0.00,Wunderground v.1.15,2013-06-22 04:16:00,
2013-06-22 00:21:00,73.8,62.2,29.99,NW,308,1.0,1.0,67,0.00,,,0.00,Wunderground v.1.15,2013-06-22 04:21:00,
2013-06-22 00:31:00,73.9,62.2,29.99,NW,307,1.0,1.0,67,0.00,,,0.00,Wunderground v.1.15,2013-06-22 04:31:00,
2013-06-22 00:41:00,74.0,62.3,29.99,NW,307,1.0,1.0,67,0.00,,,0.00,Wunderground v.1.15,2013-06-22 04:41:00,
2013-06-22 00:51:00,74.1,62.4,29.99,NW,307,1.0,1.0,67,0.00,,,0.00,Wunderground v.1.15,2013-06-22 04:51:00,
2013-06-22 00:56:00,74.1,62.4,29.99,West,263,1.0,1.0,67,0.00,,,0.00,Wunderground v.1.15,2013-06-22 04:56:00,
2013-06-22 01:01:00,74.1,62.4,29.99,West,263,1.0,1.0,67,0.00,,,0.00,Wunderground v.1.15,2013-06-22 05:01:00,
2013-06-22 01:11:00,73.9,62.7,29.99,West,263,0.0,0.0,68,0.00,,,0.00,Wunderground v.1.15,2013-06-22 05:11:00,
2013-06-22 01:16:00,73.9,62.7,29.98,West,263,0.0,1.0,68,0.00,,,0.00,Wunderground v.1.15,2013-06-22 05:16:00,
2013-06-22 01:21:00,73.8,62.6,29.98,West,260,0.0,1.0,68,0.00,,,0.00,Wunderground v.1.15,2013-06-22 05:21:00,
2013-06-22 01:31:00,73.6,62.8,29.98,West,260,1.0,1.0,69,0.00,,,0.00,Wunderground v.1.15,2013-06-22 05:31:00,
2013-06-22 01:36:00,73.6,63.2,29.98,West,260,1.0,1.0,70,0.00,,,0.00,Wunderground v.1.15,2013-06-22 05:36:00,
2013-06-22 01:46:00,73.6,63.2,29.98,West,263,1.0,3.0,70,0.00,,,0.00,Wunderground v.1.15,2013-06-22 05:46:00,
2013-06-22 01:51:00,73.8,63.4,29.98,West,263,2.0,2.0,70,0.00,,,0.00,Wunderground v.1.15,2013-06-22 05:51:00,
2013-06-22 02:01:00,73.9,63.9,29.97,West,259,1.0,2.0,71,0.00,,,0.00,Wunderground v.1.15,2013-06-22 06:01:00,
2013-06-22 02:11:00,73.8,63.8,29.96,West,260,1.0,1.0,71,0.00,,,0.00,Wunderground v.1.15,2013-06-22 06:11:00,
2013-06-22 02:16:00,73.7,64.1,29.96,West,260,1.0,1.0,72,0.00,,,0.00,Wunderground v.1.15,2013-06-22 06:16:00,
2013-06-22 02:26:00,73.6,64.4,29.96,WSW,258,1.0,2.0,73,0.00,,,0.00,Wunderground v.1.15,2013-06-22 06:26:00,
2013-06-22 02:36:00,73.5,64.3,29.95,WSW,252,2.0,2.0,73,0.00,,,0.00,Wunderground v.1.15,2013-06-22 06:36:00,
2013-06-22 02:41:00,73.4,64.2,29.95,West,267,3.0,3.0,73,0.00,,,0.00,Wunderground v.1.15,2013-06-22 06:41:00,
2013-06-22 02:51:00,73.2,64.4,29.95,West,269,1.0,4.0,74,0.00,,,0.00,Wunderground v.1.15,2013-06-22 06:51:00,
2013-06-22 02:56:00,73.0,64.2,29.95,West,272,1.0,4.0,74,0.00,,,0.00,Wunderground v.1.15,2013-06-22 06:56:00,
2013-06-22 03:06:00,72.8,64.4,29.95,West,275,1.0,1.0,75,0.00,,,0.00,Wunderground v.1.15,2013-06-22 07:06:00,
2013-06-22 03:11:00,72.6,64.2,29.95,West,275,1.0,1.0,75,0.00,,,0.00,Wunderground v.1.15,2013-06-22 07:11:00,
2013-06-22 03:21:00,72.5,64.5,29.94,NW,321,0.0,4.0,76,0.00,,,0.00,Wunderground v.1.15,2013-06-22 07:21:00,
2013-06-22 03:26:00,72.4,64.4,29.95,NW,313,1.0,4.0,76,0.00,,,0.00,Wunderground v.1.15,2013-06-22 07:26:00,
2013-06-22 03:31:00,72.3,64.7,29.94,NW,304,1.0,2.0,77,0.00,,,0.00,Wunderground v.1.15,2013-06-22 07:31:00,
2013-06-22 03:41:00,72.1,64.5,29.94,WSW,246,1.0,1.0,77,0.00,,,0.00,Wunderground v.1.15,2013-06-22 07:41:00,
2013-06-22 03:46:00,72.1,64.5,29.94,WSW,251,2.0,2.0,77,0.00,,,0.00,Wunderground v.1.15,2013-06-22 07:46:00,
2013-06-22 03:56:00,72.0,64.8,29.93,NNW,327,2.0,2.0,78,0.00,,,0.00,Wunderground v.1.15,2013-06-22 07:56:00,
2013-06-22 04:06:00,71.9,64.7,29.94,NNW,327,1.0,1.0,78,0.00,,,0.00,Wunderground v.1.15,2013-06-22 08:06:00,
2013-06-22 04:11:00,71.8,64.9,29.94,NNW,327,0.0,0.0,79,0.00,,,0.00,Wunderground v.1.15,2013-06-22 08:11:00,
2013-06-22 04:21:00,71.7,64.8,29.94,WNW,297,1.0,1.0,79,0.00,,,0.00,Wunderground v.1.15,2013-06-22 08:21:00,
2013-06-22 04:31:00,71.7,64.8,29.95,WNW,294,1.0,1.0,79,0.00,,,0.00,Wunderground v.1.15,2013-06-22 08:31:00,
2013-06-22 04:41:00,71.7,64.8,29.95,WNW,285,2.0,3.0,79,0.00,,,0.00,Wunderground v.1.15,2013-06-22 08:41:00,
2013-06-22 04:46:00,71.7,64.8,29.95,WNW,285,2.0,3.0,79,0.00,,,0.00,Wunderground v.1.15,2013-06-22 08:46:00,
2013-06-22 04:56:00,71.7,65.2,29.95,WNW,285,1.0,2.0,80,0.00,,,0.00,Wunderground v.1.15,2013-06-22 08:56:00,
2013-06-22 05:06:00,71.6,65.1,29.95,WNW,284,0.0,0.0,80,0.00,,,0.00,Wunderground v.1.15,2013-06-22 09:06:00,
2013-06-22 05:16:00,71.5,65.0,29.94,WNW,285,0.0,0.0,80,0.00,,,0.00,Wunderground v.1.15,2013-06-22 09:16:00,
2013-06-22 05:26:00,71.4,65.3,29.94,WNW,284,0.0,0.0,81,0.00,,,0.00,Wunderground v.1.15,2013-06-22 09:26:00,
2013-06-22 05:36:00,71.2,65.1,29.94,WNW,284,1.0,1.0,81,0.00,,,0.00,Wunderground v.1.15,2013-06-22 09:36:00,
2013-06-22 05:46:00,71.2,65.1,29.94,WNW,285,0.0,0.0,81,0.00,,,0.00,Wunderground v.1.15,2013-06-22 09:46:00,
2013-06-22 05:51:00,71.2,65.1,29.94,WNW,285,0.0,0.0,81,0.00,,,0.00,Wunderground v.1.15,2013-06-22 09:51:00,
2013-06-22 06:01:00,71.1,65.0,29.94,WNW,285,0.0,0.0,81,0.00,,,0.00,Wunderground v.1.15,2013-06-22 10:01:00,
2013-06-22 06:11:00,71.0,64.9,29.95,WNW,284,0.0,0.0,81,0.00,,,0.00,Wunderground v.1.15,2013-06-22 10:11:00,
2013-06-22 06:16:00,71.0,64.9,29.95,WNW,285,0.0,0.0,81,0.00,,,0.00,Wunderground v.1.15,2013-06-22 10:16:00,
2013-06-22 06:21:00,70.9,64.8,29.95,WNW,285,0.0,0.0,81,0.00,,,0.00,Wunderground v.1.15,2013-06-22 10:21:00,
2013-06-22 06:31:00,70.8,64.7,29.95,WNW,284,0.0,1.0,81,0.00,,,0.00,Wunderground v.1.15,2013-06-22 10:31:00,
2013-06-22 06:36:00,70.7,64.6,29.95,WNW,285,0.0,1.0,81,0.00,,,0.00,Wunderground v.1.15,2013-06-22 10:36:00,
2013-06-22 06:46:00,70.6,64.8,29.94,WNW,285,0.0,0.0,82,0.00,,,0.00,Wunderground v.1.15,2013-06-22 10:46:00,
2013-06-22 06:56:00,70.7,64.9,29.95,WNW,285,0.0,1.0,82,0.00,,,0.00,Wunderground v.1.15,2013-06-22 10:56:00,
2013-06-22 07:01:00,70.8,65.0,29.95,WNW,285,0.0,0.0,82,0.00,,,0.00,Wunderground v.1.15,2013-06-22 11:01:00,
2013-06-22 07:11:00,70.9,64.8,29.95,WNW,285,1.0,1.0,81,0.00,,,0.00,Wunderground v.1.15,2013-06-22 11:11:00,
2013-06-22 07:21:00,71.1,65.0,29.95,WNW,285,1.0,2.0,81,0.00,,,0.00,Wunderground v.1.15,2013-06-22 11:21:00,
2013-06-22 07:31:00,71.4,65.3,29.95,WNW,285,1.0,1.0,81,0.00,,,0.00,Wunderground v.1.15,2013-06-22 11:31:00,
2013-06-22 07:41:00,71.7,65.2,29.96,WNW,285,2.0,2.0,80,0.00,,,0.00,Wunderground v.1.15,2013-06-22 11:41:00,
2013-06-22 07:46:00,71.9,65.4,29.96,West,273,2.0,2.0,80,0.00,,,0.00,Wunderground v.1.15,2013-06-22 11:46:00,
2013-06-22 07:51:00,72.2,65.7,29.97,West,273,3.0,3.0,80,0.00,,,0.00,Wunderground v.1.15,2013-06-22 11:51:00,
2013-06-22 08:01:00,72.6,65.7,29.98,West,267,2.0,4.0,79,0.00,,,0.00,Wunderground v.1.15,2013-06-22 12:01:00,
2013-06-22 08:11:00,72.9,66.0,29.98,West,261,3.0,3.0,79,0.00,,,0.00,Wunderground v.1.15,2013-06-22 12:11:00,
2013-06-22 08:16:00,73.1,66.2,29.97,WSW,250,4.0,4.0,79,0.00,,,0.00,Wunderground v.1.15,2013-06-22 12:16:00,
2013-06-22 08:21:00,73.3,66.4,29.97,WNW,285,3.0,4.0,79,0.00,,,0.00,Wunderground v.1.15,2013-06-22 12:21:00,
2013-06-22 08:31:00,73.7,66.4,29.98,West,277,3.0,7.0,78,0.00,,,0.00,Wunderground v.1.15,2013-06-22 12:31:00,
2013-06-22 08:36:00,73.9,66.6,29.98,West,281,4.0,11.0,78,0.00,,,0.00,Wunderground v.1.15,2013-06-22 12:36:00,
2013-06-22 08:41:00,74.2,66.9,29.99,West,275,5.0,9.0,78,0.00,,,0.00,Wunderground v.1.15,2013-06-22 12:41:00,
2013-06-22 08:51:00,74.3,66.6,29.99,West,277,7.0,10.0,77,0.00,,,0.00,Wunderground v.1.15,2013-06-22 12:51:00,
2013-06-22 09:01:00,74.2,66.5,30.00,WSW,250,7.0,7.0,77,0.00,,,0.00,Wunderground v.1.15,2013-06-22 13:01:00,
2013-06-22 09:11:00,74.4,67.1,29.99,WSW,246,5.0,6.0,78,0.00,,,0.00,Wunderground v.1.15,2013-06-22 13:11:00,
2013-06-22 09:21:00,74.5,66.8,29.99,West,260,6.0,6.0,77,0.00,,,0.00,Wunderground v.1.15,2013-06-22 13:21:00,
2013-06-22 09:26:00,74.5,67.2,29.99,West,263,5.0,6.0,78,0.00,,,0.00,Wunderground v.1.15,2013-06-22 13:26:00,
2013-06-22 09:36:00,74.7,67.4,29.99,West,281,5.0,6.0,78,0.00,,,0.00,Wunderground v.1.15,2013-06-22 13:36:00,
2013-06-22 09:46:00,75.3,67.6,29.99,West,264,5.0,6.0,77,0.00,,,0.00,Wunderground v.1.15,2013-06-22 13:46:00,
2013-06-22 09:51:00,75.8,68.1,29.99,West,274,4.0,4.0,77,0.00,,,0.00,Wunderground v.1.15,2013-06-22 13:51:00,
2013-06-22 10:01:00,76.6,68.1,30.00,WSW,248,4.0,4.0,75,0.00,,,0.00,Wunderground v.1.15,2013-06-22 14:01:00,
2013-06-22 10:06:00,76.8,67.9,30.00,WNW,298,3.0,6.0,74,0.00,,,0.00,Wunderground v.1.15,2013-06-22 14:06:00,
2013-06-22 10:11:00,76.8,67.9,30.00,WSW,247,4.0,4.0,74,0.00,,,0.00,Wunderground v.1.15,2013-06-22 14:11:00,
2013-06-22 10:21:00,77.2,67.9,30.00,WNW,285,4.0,4.0,73,0.00,,,0.00,Wunderground v.1.15,2013-06-22 14:21:00,
2013-06-22 10:31:00,77.4,68.5,30.00,WNW,302,4.0,5.0,74,0.00,,,0.00,Wunderground v.1.15,2013-06-22 14:31:00,
2013-06-22 10:36:00,77.8,68.8,29.99,WSW,251,3.0,5.0,74,0.00,,,0.00,Wunderground v.1.15,2013-06-22 14:36:00,
2013-06-22 10:41:00,78.1,68.7,29.99,WSW,243,3.0,4.0,73,0.00,,,0.00,Wunderground v.1.15,2013-06-22 14:41:00,
2013-06-22 10:51:00,78.4,68.2,29.98,West,271,5.0,5.0,71,0.00,,,0.00,Wunderground v.1.15,2013-06-22 14:51:00,
2013-06-22 10:56:00,78.7,68.5,29.98,WNW,290,4.0,5.0,71,0.00,,,0.00,Wunderground v.1.15,2013-06-22 14:56:00,
2013-06-22 11:11:00,79.4,68.8,29.99,West,270,4.0,4.0,70,0.00,,,0.00,Wunderground v.1.15,2013-06-22 15:11:00,
2013-06-22 11:16:00,80.0,69.3,29.98,West,266,4.0,6.0,70,0.00,,,0.00,Wunderground v.1.15,2013-06-22 15:16:00,
2013-06-22 11:21:00,80.4,68.9,29.98,WSW,257,3.0,3.0,68,0.00,,,0.00,Wunderground v.1.15,2013-06-22 15:21:00,
2013-06-22 11:31:00,81.0,69.4,29.98,WSW,248,3.0,4.0,68,0.00,,,0.00,Wunderground v.1.15,2013-06-22 15:31:00,
2013-06-22 11:36:00,81.2,69.2,29.99,West,279,3.0,4.0,67,0.00,,,0.00,Wunderground v.1.15,2013-06-22 15:36:00,
2013-06-22 11:41:00,81.1,69.1,29.99,West,265,3.0,3.0,67,0.00,,,0.00,Wunderground v.1.15,2013-06-22 15:41:00,
2013-06-22 11:51:00,80.9,69.8,30.00,West,269,3.0,3.0,69,0.00,,,0.00,Wunderground v.1.15,2013-06-22 15:51:00,
2013-06-22 11:56:00,80.9,69.8,30.00,West,271,3.0,3.0,69,0.00,,,0.00,Wunderground v.1.15,2013-06-22 15:56:00,
2013-06-22 12:06:00,80.7,70.0,30.00,West,280,4.0,4.0,70,0.00,,,0.00,Wunderground v.1.15,2013-06-22 16:06:00,
2013-06-22 12:16:00,80.4,69.3,30.00,West,279,3.0,5.0,69,0.00,,,0.00,Wunderground v.1.15,2013-06-22 16:16:00,
2013-06-22 12:26:00,80.5,69.8,30.00,West,267,3.0,4.0,70,0.00,,,0.00,Wunderground v.1.15,2013-06-22 16:26:00,
2013-06-22 12:31:00,80.7,70.0,30.00,WNW,299,3.0,3.0,70,0.00,,,0.00,Wunderground v.1.15,2013-06-22 16:31:00,
2013-06-22 12:41:00,81.3,70.2,30.00,West,273,3.0,3.0,69,0.00,,,0.00,Wunderground v.1.15,2013-06-22 16:41:00,
2013-06-22 12:46:00,81.3,70.2,29.99,WNW,290,3.0,3.0,69,0.00,,,0.00,Wunderground v.1.15,2013-06-22 16:46:00,
2013-06-22 12:51:00,81.5,69.9,30.00,West,263,3.0,3.0,68,0.00,,,0.00,Wunderground v.1.15,2013-06-22 16:51:00,
2013-06-22 13:01:00,81.6,70.4,30.01,West,276,5.0,7.0,69,0.00,,,0.00,Wunderground v.1.15,2013-06-22 17:01:00,
2013-06-22 13:11:00,82.3,71.1,30.00,West,275,6.0,6.0,69,0.00,,,0.00,Wunderground v.1.15,2013-06-22 17:11:00,
2013-06-22 13:21:00,82.3,69.8,30.00,West,273,9.0,12.0,66,0.00,,,0.00,Wunderground v.1.15,2013-06-22 17:21:00,
2013-06-22 13:26:00,82.0,70.4,30.00,WNW,299,9.0,12.0,68,0.00,,,0.00,Wunderground v.1.15,2013-06-22 17:26:00,
2013-06-22 13:31:00,81.9,70.3,30.00,WSW,248,7.0,10.0,68,0.00,,,0.00,Wunderground v.1.15,2013-06-22 17:31:00,
2013-06-22 13:36:00,81.9,70.7,30.00,NW,311,7.0,10.0,69,0.00,,,0.00,Wunderground v.1.15,2013-06-22 17:36:00,
2013-06-22 13:46:00,82.1,70.5,29.99,West,270,9.0,15.0,68,0.00,,,0.00,Wunderground v.1.15,2013-06-22 17:46:00,
2013-06-22 13:56:00,82.7,70.6,29.99,WSW,246,7.0,9.0,67,0.00,,,0.00,Wunderground v.1.15,2013-06-22 17:56:00,
2013-06-22 14:06:00,83.1,70.6,29.98,West,267,7.0,7.0,66,0.00,,,0.00,Wunderground v.1.15,2013-06-22 18:06:00,
2013-06-22 14:11:00,83.7,70.2,29.98,WSW,254,8.0,8.0,64,0.00,,,0.00,Wunderground v.1.15,2013-06-22 18:11:00,
2013-06-22 14:16:00,83.9,70.0,29.98,NW,317,6.0,8.0,63,0.00,,,0.00,Wunderground v.1.15,2013-06-22 18:16:00,
2013-06-22 14:21:00,84.2,71.2,29.98,West,262,5.0,5.0,65,0.00,,,0.00,Wunderground v.1.15,2013-06-22 18:21:00,
2013-06-22 14:31:00,84.6,70.6,29.97,NW,306,3.0,3.0,63,0.00,,,0.00,Wunderground v.1.15,2013-06-22 18:31:00,
2013-06-22 14:41:00,85.0,70.0,29.97,West,279,3.0,3.0,61,0.00,,,0.00,Wunderground v.1.15,2013-06-22 18:41:00,
2013-06-22 14:51:00,84.5,70.5,29.97,WSW,257,4.0,5.0,63,0.00,,,0.00,Wunderground v.1.15,2013-06-22 18:51:00,
2013-06-22 14:56:00,84.2,69.8,29.97,WNW,290,5.0,5.0,62,0.00,,,0.00,Wunderground v.1.15,2013-06-22 18:56:00,
2013-06-22 15:06:00,85.1,70.1,29.96,SW,225,2.0,4.0,61,0.00,,,0.00,Wunderground v.1.15,2013-06-22 19:06:00,
2013-06-22 15:16:00,85.3,70.3,29.96,West,276,4.0,9.0,61,0.00,,,0.00,Wunderground v.1.15,2013-06-22 19:16:00,
2013-06-22 15:21:00,85.6,71.1,29.96,SW,236,4.0,4.0,62,0.00,,,0.00,Wunderground v.1.15,2013-06-22 19:21:00,
2013-06-22 15:31:00,85.9,69.9,29.96,WSW,250,4.0,6.0,59,0.00,,,0.00,Wunderground v.1.15,2013-06-22 19:31:00,
2013-06-22 15:41:00,86.2,70.7,29.95,WNW,284,4.0,4.0,60,0.00,,,0.00,Wunderground v.1.15,2013-06-22 19:41:00,
2013-06-22 15:46:00,86.5,71.5,29.94,WNW,294,3.0,3.0,61,0.00,,,0.00,Wunderground v.1.15,2013-06-22 19:46:00,
2013-06-22 15:56:00,87.5,70.9,29.94,NE,42,1.0,1.0,58,0.00,,,0.00,Wunderground v.1.15,2013-06-22 19:56:00,
2013-06-22 16:06:00,87.5,70.4,29.94,West,261,2.0,5.0,57,0.00,,,0.00,Wunderground v.1.15,2013-06-22 20:06:00,
2013-06-22 16:16:00,87.7,69.5,29.93,West,263,3.0,3.0,55,0.00,,,0.00,Wunderground v.1.15,2013-06-22 20:16:00,
2013-06-22 16:26:00,87.6,70.0,29.93,West,277,2.0,4.0,56,0.00,,,0.00,Wunderground v.1.15,2013-06-22 20:26:00,
2013-06-22 16:31:00,87.2,69.1,29.93,West,263,1.0,1.0,55,0.00,,,0.00,Wunderground v.1.15,2013-06-22 20:31:00,
2013-06-22 16:41:00,87.2,69.6,29.91,WNW,299,1.0,3.0,56,0.00,,,0.00,Wunderground v.1.15,2013-06-22 20:41:00,
2013-06-22 16:51:00,87.2,69.1,29.90,WSW,247,2.0,2.0,55,0.00,,,0.00,Wunderground v.1.15,2013-06-22 20:51:00,
2013-06-22 17:01:00,86.7,68.1,29.89,WNW,282,2.0,2.0,54,0.00,,,0.00,Wunderground v.1.15,2013-06-22 21:01:00,
2013-06-22 17:06:00,87.1,69.5,29.89,WSW,254,1.0,2.0,56,0.00,,,0.00,Wunderground v.1.15,2013-06-22 21:06:00,
2013-06-22 17:16:00,88.6,68.7,29.89,South,171,1.0,3.0,52,0.00,,,0.00,Wunderground v.1.15,2013-06-22 21:16:00,
2013-06-22 17:26:00,87.6,66.1,29.89,SE,131,4.0,7.0,49,0.00,,,0.00,Wunderground v.1.15,2013-06-22 21:26:00,
2013-06-22 17:31:00,87.3,67.5,29.89,West,272,4.0,4.0,52,0.00,,,0.00,Wunderground v.1.15,2013-06-22 21:31:00,
2013-06-22 17:36:00,87.8,68.0,29.90,West,269,2.0,4.0,52,0.00,,,0.00,Wunderground v.1.15,2013-06-22 21:36:00,
2013-06-22 17:46:00,87.9,67.5,29.90,West,266,4.0,5.0,51,0.00,,,0.00,Wunderground v.1.15,2013-06-22 21:46:00,
2013-06-22 17:56:00,88.3,68.4,29.91,ENE,78,2.0,3.0,52,0.00,,,0.00,Wunderground v.1.15,2013-06-22 21:56:00,
2013-06-22 18:01:00,88.5,68.6,29.91,West,263,1.0,4.0,52,0.00,,,0.00,Wunderground v.1.15,2013-06-22 22:01:00,
2013-06-22 18:11:00,87.3,68.1,29.92,West,269,3.0,4.0,53,0.00,,,0.00,Wunderground v.1.15,2013-06-22 22:11:00,
2013-06-22 18:21:00,86.3,68.2,29.92,West,275,3.0,4.0,55,0.00,,,0.00,Wunderground v.1.15,2013-06-22 22:21:00,
2013-06-22 18:26:00,86.7,68.6,29.92,West,267,3.0,3.0,55,0.00,,,0.00,Wunderground v.1.15,2013-06-22 22:26:00,
2013-06-22 18:31:00,86.8,69.2,29.92,West,259,3.0,3.0,56,0.00,,,0.00,Wunderground v.1.15,2013-06-22 22:31:00,
2013-06-22 18:36:00,86.9,68.8,29.93,WNW,284,3.0,3.0,55,0.00,,,0.00,Wunderground v.1.15,2013-06-22 22:36:00,
2013-06-22 18:41:00,87.1,68.4,29.93,WNW,282,3.0,6.0,54,0.00,,,0.00,Wunderground v.1.15,2013-06-22 22:41:00,
2013-06-22 18:46:00,86.5,67.9,29.93,West,263,4.0,4.0,54,0.00,,,0.00,Wunderground v.1.15,2013-06-22 22:46:00,
2013-06-22 18:51:00,86.6,68.5,29.93,West,273,4.0,4.0,55,0.00,,,0.00,Wunderground v.1.15,2013-06-22 22:51:00,
2013-06-22 18:56:00,86.7,68.1,29.93,WSW,253,4.0,6.0,54,0.00,,,0.00,Wunderground v.1.15,2013-06-22 22:56:00,
2013-06-22 19:06:00,86.5,68.4,29.93,West,265,5.0,6.0,55,0.00,,,0.00,Wunderground v.1.15,2013-06-22 23:06:00,
2013-06-22 19:11:00,86.1,68.0,29.93,West,265,4.0,4.0,55,0.00,,,0.00,Wunderground v.1.15,2013-06-22 23:11:00,
2013-06-22 19:21:00,85.5,68.5,29.94,WNW,284,3.0,3.0,57,0.00,,,0.00,Wunderground v.1.15,2013-06-22 23:21:00,
2013-06-22 19:26:00,85.6,68.6,29.94,SW,231,2.0,3.0,57,0.00,,,0.00,Wunderground v.1.15,2013-06-22 23:26:00,
2013-06-22 19:36:00,86.2,68.7,29.93,WNW,284,2.0,4.0,56,0.00,,,0.00,Wunderground v.1.15,2013-06-22 23:36:00,
2013-06-22 19:41:00,86.3,67.7,29.92,WSW,240,3.0,3.0,54,0.00,,,0.00,Wunderground v.1.15,2013-06-22 23:41:00,
2013-06-22 19:46:00,86.2,67.6,29.92,West,263,4.0,4.0,54,0.00,,,0.00,Wunderground v.1.15,2013-06-22 23:46:00,
2013-06-22 19:56:00,86.2,67.6,29.92,WNW,294,4.0,5.0,54,0.00,,,0.00,Wunderground v.1.15,2013-06-22 23:56:00,
2013-06-22 20:06:00,85.7,67.7,29.92,West,278,5.0,7.0,55,0.00,,,0.00,Wunderground v.1.15,2013-06-23 00:06:00,
2013-06-22 20:11:00,85.5,68.5,29.92,WNW,282,6.0,6.0,57,0.00,,,0.00,Wunderground v.1.15,2013-06-23 00:11:00,
2013-06-22 20:21:00,85.2,68.2,29.92,WSW,257,5.0,5.0,57,0.00,,,0.00,Wunderground v.1.15,2013-06-23 00:21:00,
2013-06-22 20:31:00,84.9,68.0,29.92,West,268,5.0,6.0,57,0.00,,,0.00,Wunderground v.1.15,2013-06-23 00:31:00,
2013-06-22 20:41:00,84.5,68.1,29.92,WSW,238,5.0,5.0,58,0.00,,,0.00,Wunderground v.1.15,2013-06-23 00:41:00,
2013-06-22 20:51:00,83.9,68.0,29.93,WNW,294,4.0,4.0,59,0.00,,,0.00,Wunderground v.1.15,2013-06-23 00:51:00,
2013-06-22 21:01:00,83.2,67.9,29.93,WNW,298,4.0,4.0,60,0.00,,,0.00,Wunderground v.1.15,2013-06-23 01:01:00,
2013-06-22 21:11:00,82.5,67.7,29.94,WNW,294,3.0,3.0,61,0.00,,,0.00,Wunderground v.1.15,2013-06-23 01:11:00,
2013-06-22 21:21:00,81.9,68.1,29.94,WNW,294,2.0,3.0,63,0.00,,,0.00,Wunderground v.1.15,2013-06-23 01:21:00,
2013-06-22 21:26:00,81.4,67.6,29.93,WNW,294,2.0,3.0,63,0.00,,,0.00,Wunderground v.1.15,2013-06-23 01:26:00,
2013-06-22 21:36:00,81.3,67.5,29.94,WNW,294,2.0,2.0,63,0.00,,,0.00,Wunderground v.1.15,2013-06-23 01:36:00,
2013-06-22 22:01:00,80.4,67.1,29.94,WNW,294,0.0,0.0,64,0.00,,,0.00,Wunderground v.1.15,2013-06-23 02:01:00,
2013-06-22 22:16:00,80.1,67.3,29.95,WNW,294,1.0,1.0,65,0.00,,,0.00,Wunderground v.1.15,2013-06-23 02:16:00,
2013-06-22 22:26:00,79.9,67.1,29.95,WNW,294,2.0,4.0,65,0.00,,,0.00,Wunderground v.1.15,2013-06-23 02:26:00,
2013-06-22 22:31:00,80.0,67.2,29.95,WNW,294,2.0,4.0,65,0.00,,,0.00,Wunderground v.1.15,2013-06-23 02:31:00,
2013-06-22 22:41:00,80.3,67.5,29.96,WNW,289,2.0,4.0,65,0.00,,,0.00,Wunderground v.1.15,2013-06-23 02:41:00,
2013-06-22 22:51:00,80.3,67.5,29.95,WNW,289,1.0,2.0,65,0.00,,,0.00,Wunderground v.1.15,2013-06-23 02:51:00,
2013-06-22 23:01:00,79.9,67.5,29.96,WNW,289,0.0,0.0,66,0.00,,,0.00,Wunderground v.1.15,2013-06-23 03:01:00,
2013-06-22 23:16:00,77.4,68.1,29.96,East,98,3.0,4.0,73,0.00,,,0.00,Wunderground v.1.15,2013-06-23 03:16:00,
2013-06-22 23:26:00,75.2,67.9,29.97,East,89,4.0,5.0,78,0.00,,,0.00,Wunderground v.1.15,2013-06-23 03:26:00,
2013-06-22 23:36:00,73.7,67.1,29.97,East,90,2.0,2.0,80,0.00,,,0.00,Wunderground v.1.15,2013-06-23 03:36:00,
2013-06-22 23:46:00,72.9,67.1,29.97,East,90,0.0,0.0,82,0.00,,,0.00,Wunderground v.1.15,2013-06-23 03:46:00,